[TLELIST] Archives

 

[list_settings.list_name] Current TLEs

December 21st 2011 PST

HST 1 20580U 90037B 11354.02083100 .00001812 00000-0 12240-3 0 9097 2 20580 028.4698 242.1182 0003199 295.6888 064.3414 15.02011716987619 ISS (ZARYA) 1 25544U 98067A 11354.25152733 .00015516 00000-0 20390-3 0 6589 2 25544 051.6452 304.8055 0024784 184.1742 324.5754 15.58353303749952 CXO 1 25867U 99040B 11354.08333333 -.00000967 00000-0 00000+0 0 6797 2 25867 070.8812 018.3074 8730241 277.5594 356.9599 00.37808491 8478 ____________________________________________________________________ These 2-Line ...Continue Reading

[list_settings.list_name] Current TLEs

December 20th 2011 PST

HST 1 20580U 90037B 11353.15702321 .00001699 00000-0 11402-3 0 9084 2 20580 028.4702 247.7663 0003235 288.7920 071.2262 15.02008581987480 ISS (ZARYA) 1 25544U 98067A 11353.41738178 .00015309 00000-0 20148-3 0 6524 2 25544 051.6455 308.9854 0024910 181.1882 324.8719 15.58322576749828 CXO 1 25867U 99040B 11354.08333333 -.00000967 00000-0 00000+0 0 6797 2 25867 070.8812 018.3074 8730241 277.5594 356.9599 00.37808491 8478 ____________________________________________________________________ These 2-Line ...Continue Reading

[list_settings.list_name] Current TLEs

December 19th 2011 PST

HST 1 20580U 90037B 11352.16031821 .00001729 00000-0 11625-3 0 9074 2 20580 028.4711 254.2827 0003318 272.2528 087.7495 15.02005725987330 ISS (ZARYA) 1 25544U 98067A 11352.39191811 .00015580 00000-0 20513-3 0 6445 2 25544 051.6455 314.1285 0025065 177.6083 331.8751 15.58290803749663 CXO 1 25867U 99040B 11354.08333333 -.00000967 00000-0 00000+0 0 6797 2 25867 070.8812 018.3074 8730241 277.5594 356.9599 00.37808491 8478 ____________________________________________________________________ These 2-Line ...Continue Reading

[list_settings.list_name] Current TLEs

December 18th 2011 PST

HST 1 20580U 90037B 11351.16361536 .00002752 00000-0 19247-3 0 9066 2 20580 028.4708 260.8066 0003558 266.5032 093.5016 15.02006301987184 ISS (ZARYA) 1 25544U 98067A 11351.16888946 .00010787 00000-0 14448-3 0 6377 2 25544 051.6452 320.2653 0024794 173.1144 310.8816 15.58245139749474 CXO 1 25867U 99040B 11351.45833333 -.00000679 00000-0 00000+0 0 6789 2 25867 070.8557 018.4925 8726185 277.5583 359.6071 00.37804402 8462 ____________________________________________________________________ These 2-Line ...Continue Reading

[list_settings.list_name] Current TLEs

December 17th 2011 PST

HST 1 20580U 90037B 11350.16690774 .00002963 00000-0 20821-3 0 9057 2 20580 028.4715 267.3191 0003361 256.5974 103.3954 15.02002845987033 ISS (ZARYA) 1 25544U 98067A 11350.46727414 .00016513 00000-0 21748-3 0 6331 2 25544 051.6457 323.7820 0024987 170.5526 335.0094 15.58231813749361 CXO 1 25867U 99040B 11351.45833333 -.00000679 00000-0 00000+0 0 6789 2 25867 070.8557 018.4925 8726185 277.5583 359.6071 00.37804402 8462 ____________________________________________________________________ These 2-Line ...Continue Reading

[list_settings.list_name] Current TLEs

December 16th 2011 PST

HST 1 20580U 90037B 11347.17678168 .00003263 00000-0 23064-3 0 9042 2 20580 028.4717 286.8741 0003564 222.7757 137.2358 15.01987885986589 ISS (ZARYA) 1 25544U 98067A 11349.37521666 .00017258 00000-0 22724-3 0 6275 2 25544 051.6448 329.2586 0025061 166.3951 329.1271 15.58197134749199 CXO 1 25867U 99040B 11346.16666667 -.00000705 00000-0 00000+0 0 6774 2 25867 070.7935 018.9578 8725134 277.5274 359.1035 00.37803291 8448 ____________________________________________________________________ These 2-Line ...Continue Reading

[list_settings.list_name] Current TLEs

December 15th 2011 PST

HST 1 20580U 90037B 11347.17678168 .00003263 00000-0 23064-3 0 9042 2 20580 028.4717 286.8741 0003564 222.7757 137.2358 15.01987885986589 ISS (ZARYA) 1 25544U 98067A 11348.41324742 .00011431 00000-0 15317-3 0 6227 2 25544 051.6453 334.0868 0025044 162.9265 332.8847 15.58155482749047 CXO 1 25867U 99040B 11346.16666667 -.00000705 00000-0 00000+0 0 6774 2 25867 070.7935 018.9578 8725134 277.5274 359.1035 00.37803291 8448 ____________________________________________________________________ These 2-Line ...Continue Reading

[list_settings.list_name] Current TLEs

December 14th 2011 PST

HST 1 20580U 90037B 11347.17678168 .00003263 00000-0 23064-3 0 9042 2 20580 028.4717 286.8741 0003564 222.7757 137.2358 15.01987885986589 ISS (ZARYA) 1 25544U 98067A 11347.26750000 .00018912 00000-0 24899-3 0 6146 2 25544 051.6437 339.8304 0025016 159.0386 025.6475 15.58126376748860 CXO 1 25867U 99040B 11346.16666667 -.00000705 00000-0 00000+0 0 6774 2 25867 070.7935 018.9578 8725134 277.5274 359.1035 00.37803291 8448 ____________________________________________________________________ These 2-Line ...Continue Reading

[list_settings.list_name] Current TLEs

December 13th 2011 PST

HST 1 20580U 90037B 11344.25307445 .00003477 00000-0 24666-3 0 9030 2 20580 028.4717 305.9879 0003616 193.3292 166.7140 15.01970901986148 ISS (ZARYA) 1 25544U 98067A 11346.36157800 .00019501 00000-0 25689-3 0 6081 2 25544 051.6432 344.3748 0024836 155.4957 344.3191 15.58092544748721 CXO 1 25867U 99040B 11346.16666667 -.00000705 00000-0 00000+0 0 6774 2 25867 070.7935 018.9578 8725134 277.5274 359.1035 00.37803291 8448 ____________________________________________________________________ These 2-Line ...Continue Reading

[list_settings.list_name] Current TLEs

December 12th 2011 PST

HST 1 20580U 90037B 11344.25307445 .00003477 00000-0 24666-3 0 9030 2 20580 028.4717 305.9879 0003616 193.3292 166.7140 15.01970901986148 ISS (ZARYA) 1 25544U 98067A 11345.39264056 .00089611 00000-0 11470-2 0 6019 2 25544 051.6442 349.2365 0024772 151.8900 309.4773 15.58079415748571 CXO 1 25867U 99040B 11346.16666667 -.00000705 00000-0 00000+0 0 6774 2 25867 070.7935 018.9578 8725134 277.5274 359.1035 00.37803291 8448 ____________________________________________________________________ These 2-Line ...Continue Reading
  • This mailing list is a public mailing list - anyone may join or leave, at any time.
  • This mailing list is announce-only.

International Space Station (ISS) / Hubble Space Telescope (HST) / Chandra X-Ray Observatory Orbital Data via EMAIL

Privacy Policy:

Private list